Helicity
48 56 61 57 50 45 46 45 42 40 40 41 49 57 58 54 58 13 26 26 14 18 39 16 29 71 84 168 139 18 10 18 -32 77 30 36 19 14 40 46 60 18 53 53 -35
37 42 45 55 61 60 53 51 54 47 49 45 47 55 57 58 45 55 9 42 39 21 14 -17 -14 -2 27 88 81 27 65 26 25 92 105 17 -15 -9 4 63 15 41 61 24 -32
9 16 28 36 52 63 69 64 58 65 61 60 56 58 57 64 60 38 140 106 34 11 7 21 -3 -13 29 -2 5 21 18 -30 16 58 46 20 -8 5 90 -18 21 119 87 13 -13
2 5 10 14 23 39 56 66 71 69 77 75 74 66 65 47 114 15 44 90 35 -11 52 55 22 -4 12 -30 20 21 -42 -15 32 57 36 24 -0 6 17 49 38 106 72 7 -3
1 4 6 7 12 19 24 45 62 75 81 91 86 76 68 36 55 18 24 54 27 -11 29 54 40 1 13 -11 17 50 57 12 20 92 45 -2 14 35 37 76 21 76 20 7 -8
7 8 9 10 18 18 12 24 41 63 75 86 79 79 68 71 89 -25 6 33 16 -12 6 41 47 5 11 20 3 33 46 -9 -22 58 42 35 98 72 17 12 17 79 13 -11 -11
4 6 8 7 17 24 23 31 37 45 46 50 56 61 80 66 112 -2 7 15 6 -21 -8 13 6 18 46 59 13 -5 27 -24 -8 49 50 112 61 22 10 -16 16 56 -0 -13 -19
-11 -7 -2 1 14 24 29 28 41 35 37 6 26 50 134 38 56 24 23 12 4 -8 32 1 30 70 37 36 24 8 6 -17 1 29 78 75 28 98 27 31 11 55 -2 2 -27
-12 -17 -16 -8 8 18 32 28 9 51 28 14 45 59 131 92 30 3 2 17 20 18 23 19 48 90 69 107 40 24 -7 -38 77 40 104 66 61 21 9 21 24 48 38 48 -20
-20 -20 -22 -17 -3 21 37 -21 -32 -1 1 14 74 69 57 27 13 10 -10 6 29 37 51 74 61 65 92 73 19 -3 -48 37 106 -31 26 188 170 42 20 29 72 82 44 86 -0
-21 -28 -26 -24 -16 7 39 28 37 -18 -25 9 32 70 8 3 11 43 14 34 22 64 60 35 57 28 15 16 39 -36 -5 21 91 60 -9 108 66 -68 52 74 108 83 76 102 47
-1 -21 -35 -37 -24 -18 -17 51 71 87 54 -6 59 -2 13 29 61 34 14 61 61 46 33 52 51 34 -2 -5 39 67 38 7 111 74 231 131 43 37 12 61 79 115 136 54 80
6 -4 -29 -49 -44 -28 -20 45 40 19 46 -2 1 18 27 35 37 41 28 12 32 36 38 37 25 35 2 18 32 29 32 36 121 63 32 -0 73 -35 22 71 49 49 77 60 5
1 -2 -23 -61 14 -32 -31 12 -22 13 11 47 -7 10 4 -11 4 11 1 -13 31 49 36 42 8 -5 43 20 18 24 35 53 27 -23 46 -10 40 123 130 131 171 44 75 14 -28
-3 -2 7 38 -61 -41 40 -6 33 5 36 9 11 2 12 6 -14 28 6 -9 26 18 34 40 35 26 26 18 14 18 4 59 24 26 2 12 33 104 213 231 191 59 57 41 35
31 28 43 72 98 86 11 11 27 38 6 17 18 8 3 -13 -24 49 25 22 21 13 9 23 10 24 27 39 49 32 79 29 47 27 47 14 13 188 307 191 -4 43 32 38 8
28 38 79 35 19 14 8 75 22 11 44 -1 -9 -7 -29 -1 34 37 21 58 70 116 58 16 9 21 29 39 35 27 32 92 132 101 47 -1 5 101 193 230 125 -3 129 138 -66
22 5 118 137 60 30 64 72 21 119 23 13 8 -2 -21 -9 -16 55 8 29 11 1 -3 46 87 38 28 28 14 21 19 59 75 95 17 13 46 133 -63 -254 -97 22 18 27 139
30 79 103 129 90 25 61 -15 -119 73 26 39 3 -11 -26 2 34 13 -3 3 8 11 71 89 15 40 18 11 10 14 44 28 -6 -19 -15 137 182 203 185 235 265 261 410 285 327
16 60 79 6 11 44 8 58 36 29 22 31 37 32 29 49 51 45 12 77 155 141 130 97 145 41 19 15 65 138 66 52 29 49 57 123 225 211 183 193 250 354 398 402 471
38 82 18 23 17 141 84 15 10 31 37 86 89 64 105 83 131 128 97 182 88 102 89 108 61 130 57 106 99 87 78 130 62 13 24 163 400 207 301 218 281 325 264 271 356
94 79 15 13 40 16 37 47 13 10 -9 33 65 65 41 121 140 61 186 167 106 113 167 45 48 29 11 38 56 67 33 73 72 24 42 168 300 76 239 168 168 243 165 183 238
64 -3 19 42 79 26 57 24 43 49 16 -18 6 20 110 66 135 31 77 29 68 116 125 153 112 70 42 43 74 89 100 78 53 25 52 82 165 222 253 145 203 204 165 168 159
72 5 24 19 1 4 17 24 32 21 27 40 34 -1 54 31 78 152 27 48 66 138 119 112 49 19 155 226 91 48 129 87 86 86 33 48 189 187 102 150 161 164 152 168 159
52 -33 -17 -37 -16 -18 -18 18 5 18 14 -4 10 24 45 76 7 56 9 19 50 51 115 129 174 71 10 57 134 79 32 41 97 144 46 156 -28 59 89 130 148 139 158 172 180
-25 -28 19 15 23 56 46 -2 30 33 62 28 24 29 44 49 50 12 124 11 30 11 91 110 120 122 216 69 129 269 69 107 45 97 27 -20 72 223 97 71 95 122 159 187 196
-14 7 67 47 40 -4 6 9 13 5 29 68 59 52 70 154 182 36 54 42 39 111 50 38 45 51 146 54 79 313 210 104 156 88 68 168 190 239 155 177 160 144 148 174 172
Wind_Speed
56 57 57 57 56 55 54 53 52 51 51 50 49 49 48 48 50 49 52 37 36 37 45 27 54 57 54 50 45 30 29 31 24 40 50 63 59 58 52 51 14 41 53 59 58
58 58 59 59 59 58 57 55 55 53 52 51 50 49 48 48 52 61 55 34 25 33 33 12 9 40 56 54 49 31 22 28 30 37 47 55 54 55 32 28 7 31 52 55 57
59 59 59 59 59 59 59 57 56 56 55 53 51 50 48 46 48 43 22 15 25 28 47 49 32 27 53 47 36 27 25 24 29 36 42 41 13 50 14 39 36 53 57 62 58
59 60 60 60 59 59 59 58 58 57 57 55 52 50 48 42 35 26 11 15 25 22 53 50 40 33 48 34 31 32 29 27 25 34 37 36 43 32 25 7 19 51 57 61 60
60 61 60 60 60 59 58 58 59 58 57 56 53 49 43 39 53 23 17 18 24 24 45 48 43 37 50 43 22 22 43 19 19 28 34 35 33 21 15 31 28 49 57 59 55
62 62 62 61 60 59 59 59 59 60 58 55 51 47 41 47 29 20 17 12 20 19 42 51 44 46 51 43 26 19 45 13 13 15 19 22 20 20 9 55 42 49 54 55 52
63 62 62 61 61 60 60 60 61 58 53 46 42 42 50 48 36 22 18 18 20 19 36 51 51 51 49 53 41 40 15 27 26 9 12 19 14 14 34 42 44 46 54 51 50
61 61 62 62 61 61 60 60 58 54 52 37 30 37 49 43 44 27 20 21 22 30 58 43 55 55 57 52 45 48 45 39 3 2 5 9 16 14 24 29 43 52 54 45 48
63 60 62 62 61 60 59 55 50 47 35 18 25 34 49 27 44 32 20 17 20 35 50 45 49 53 58 58 45 35 46 48 26 9 3 18 17 7 13 26 38 43 45 38 39
66 66 64 60 58 56 55 47 36 36 25 22 46 37 52 45 26 22 24 22 20 23 33 38 41 46 59 47 48 37 49 31 18 19 17 20 22 63 14 22 29 25 36 29 37
68 65 60 56 52 50 43 29 32 34 27 28 24 34 31 26 18 26 23 23 26 29 36 38 42 41 38 51 67 43 35 59 21 34 29 21 15 7 18 5 14 24 13 21 23
59 62 58 52 47 42 32 31 41 46 49 42 54 34 33 14 23 28 19 32 34 35 41 35 58 55 54 57 64 71 71 54 26 45 3 6 18 3 9 19 21 23 11 30 29
52 47 46 49 44 33 29 50 43 44 45 29 32 41 29 21 33 33 31 32 42 47 46 57 47 63 58 60 56 66 65 46 23 47 53 18 12 13 16 15 19 14 19 23 46
43 38 36 40 34 31 34 34 39 37 40 18 30 38 36 33 42 31 35 40 39 56 54 62 58 42 65 61 56 61 68 63 21 25 39 18 30 17 12 18 16 15 24 29 21
34 26 18 22 35 40 40 39 39 30 40 17 16 24 26 38 32 32 36 48 54 53 54 55 60 54 55 55 58 60 62 59 41 59 41 31 41 26 17 22 16 17 23 27 23
13 15 12 22 23 19 26 33 35 30 34 26 24 25 30 38 52 25 37 57 52 53 56 64 49 62 59 52 60 63 55 54 41 56 56 63 41 29 32 41 48 13 16 16 20
6 12 20 13 18 25 26 33 30 37 40 32 30 27 34 36 31 31 41 52 57 54 62 55 61 58 50 52 67 60 53 44 57 56 54 52 51 37 30 32 63 56 14 21 63
8 14 18 19 20 24 30 32 38 43 43 40 30 16 38 28 39 32 42 54 56 57 49 57 70 51 57 64 54 60 59 49 55 58 53 61 54 27 9 5 46 12 15 10 26
15 19 23 19 25 23 26 26 34 29 38 40 28 39 32 23 26 34 46 50 49 58 58 61 73 48 54 55 65 54 71 72 55 46 49 30 16 8 10 13 13 23 23 19 22
14 26 25 23 29 34 30 22 28 40 41 38 40 40 23 22 31 39 39 32 31 30 35 38 58 54 49 53 64 53 68 71 73 68 71 31 37 42 31 20 16 21 25 28 30
20 20 33 22 23 30 23 33 39 38 36 36 27 36 35 36 29 29 32 41 33 41 40 47 40 35 42 61 63 47 60 61 70 64 66 33 31 14 24 23 26 26 25 28 29
16 13 27 26 25 21 33 42 30 34 29 32 31 32 31 30 35 33 33 36 41 47 47 46 42 49 57 48 66 62 65 62 72 75 72 38 49 22 20 22 26 29 22 20 24
25 34 33 24 30 17 34 33 34 35 34 28 31 36 37 28 30 11 39 34 37 40 37 41 49 51 48 44 50 67 70 68 73 85 89 51 46 24 28 25 24 24 23 17 18
22 29 36 35 25 35 32 36 32 27 33 35 31 30 38 38 38 41 25 32 36 34 37 44 53 39 51 52 59 69 70 66 68 68 68 53 30 36 27 21 21 19 19 16 15
25 37 28 21 29 38 28 37 35 32 24 28 35 39 26 38 21 44 33 39 40 36 39 46 62 50 39 47 50 56 67 63 64 71 58 21 32 35 24 20 15 15 17 18 17
28 29 35 35 29 29 35 29 36 33 34 31 31 36 42 22 43 42 47 36 35 37 44 49 56 58 66 56 50 46 37 50 63 68 55 29 31 19 15 14 15 17 17 19 18
13 30 23 34 23 33 37 31 32 28 32 31 33 33 31 30 33 23 36 30 24 42 42 49 46 46 68 60 56 62 47 44 49 52 13 32 28 25 17 21 20 20 20 20 21
Wind_Direction
317 313 308 306 305 303 299 294 292 291 290 287 285 283 276 271 258 252 250 264 261 258 238 250 163 183 188 183 195 280 306 332 355 61 102 135 136 142 178 153 274 163 119 119 120
321 317 313 307 302 301 298 295 290 286 285 285 285 282 280 276 258 237 240 272 271 259 246 244 148 235 212 205 187 291 302 356 16 64 92 121 124 134 109 184 121 79 110 117 123
323 320 316 314 308 301 298 295 291 287 282 279 282 283 282 276 270 268 168 270 268 251 236 233 251 260 231 241 269 355 233 358 33 74 85 92 92 170 251 108 95 115 120 127 126
330 324 320 317 313 308 301 297 293 288 282 278 275 279 281 278 279 303 312 265 262 247 233 238 248 254 244 263 277 298 305 15 36 77 98 102 113 92 78 265 103 117 125 129 130
330 324 321 317 314 311 306 301 295 290 285 278 274 277 279 276 262 304 297 271 253 242 239 238 246 248 245 249 277 311 240 161 14 83 97 103 105 66 46 214 118 119 130 132 130
320 317 314 313 309 309 307 304 299 292 285 279 277 276 277 266 291 299 294 264 248 231 243 238 248 244 248 260 270 286 257 328 345 54 45 83 73 72 122 175 118 126 133 134 130
328 322 319 314 308 302 301 302 298 293 290 287 283 276 267 258 284 299 273 257 244 233 249 239 240 247 257 254 260 266 283 285 286 5 11 66 48 11 125 135 130 131 137 136 133
339 333 321 316 312 303 298 299 294 295 287 288 290 278 267 269 271 278 269 255 243 245 235 246 242 248 244 259 262 262 264 266 226 4 23 36 318 86 109 113 130 135 139 134 136
340 340 327 315 309 307 302 297 298 299 305 307 291 275 268 280 262 264 258 247 237 248 244 251 250 247 243 246 258 259 260 260 269 287 277 281 311 87 111 112 125 132 137 134 135
323 324 322 316 307 304 299 299 318 311 317 304 279 276 268 265 260 255 255 251 237 243 251 253 255 253 244 249 249 253 256 263 244 270 264 271 292 261 124 115 123 134 134 139 142
335 331 331 327 325 314 306 336 328 314 292 280 300 271 294 270 242 249 244 241 241 243 244 250 250 248 250 248 238 255 263 252 264 270 270 273 286 284 100 135 132 141 167 142 151
359 340 333 334 330 322 323 322 325 304 289 271 270 266 289 227 237 244 229 241 238 241 245 251 247 247 247 246 246 244 246 253 261 245 122 279 302 210 137 138 147 152 194 150 235
12 11 0 324 322 335 322 298 313 304 291 282 270 264 269 257 249 239 235 240 242 244 244 245 256 243 247 247 248 247 247 254 254 254 218 292 268 159 186 149 151 166 163 158 159
25 32 34 5 5 340 322 334 320 317 296 272 273 268 256 259 253 240 238 239 252 246 246 246 248 249 245 246 250 248 238 247 238 237 266 265 269 230 182 183 171 172 163 166 169
34 50 86 84 14 341 326 309 295 311 291 298 278 283 257 249 255 235 239 243 252 247 245 247 246 250 246 248 245 246 243 249 267 251 264 258 267 260 259 190 186 188 165 163 161
61 92 157 99 88 144 243 229 222 290 288 290 288 273 251 250 251 231 239 244 253 254 250 249 253 247 247 250 246 240 260 249 268 254 257 252 260 263 253 249 248 224 232 243 212
117 133 105 134 131 246 217 201 285 285 277 291 278 266 250 243 245 232 239 239 242 247 244 248 249 246 251 245 238 242 250 243 250 253 258 256 261 273 267 275 238 203 197 171 178
150 147 128 126 150 175 179 188 268 273 279 284 303 285 249 241 246 240 243 240 244 248 251 246 243 246 244 240 239 239 241 246 247 252 260 257 255 264 275 193 147 111 264 212 166
218 146 110 154 131 160 191 231 218 216 275 286 307 267 255 243 250 252 244 243 246 249 257 256 246 247 245 241 237 242 242 245 253 258 258 255 267 261 267 307 309 312 316 283 282
105 207 162 129 87 28 259 179 30 319 294 280 272 265 259 251 255 257 246 250 262 262 262 266 258 244 238 239 242 253 245 247 248 256 253 255 240 253 258 279 297 299 304 298 292
115 138 74 174 140 60 104 66 16 7 304 297 293 297 246 268 285 270 251 264 260 268 261 268 256 248 240 240 239 245 247 254 252 249 252 255 272 262 254 273 288 296 304 304 298
164 159 45 176 204 168 15 337 281 327 323 299 292 284 270 283 280 265 265 265 270 268 255 260 261 257 250 251 246 246 250 249 246 248 254 256 255 288 290 319 303 291 305 320 318
116 97 78 155 69 118 7 9 326 306 317 305 291 280 277 275 270 315 254 273 276 268 266 265 250 256 258 252 253 249 249 249 249 247 250 265 256 270 280 292 297 292 296 317 335
125 100 90 87 116 38 41 2 11 343 302 293 300 268 262 257 262 269 281 284 284 293 271 259 255 273 249 267 270 247 246 249 253 254 260 262 246 258 268 268 275 292 299 308 323
120 81 118 121 92 81 82 344 329 353 357 193 288 270 277 261 305 268 280 268 277 283 269 260 250 262 257 270 281 260 242 248 253 251 275 245 246 244 254 255 270 287 305 299 316
96 101 89 93 115 113 91 101 3 339 280 349 248 258 257 326 268 257 264 280 277 274 261 259 262 264 257 267 277 274 254 252 252 254 265 258 243 239 233 248 267 283 303 297 307
90 112 151 75 134 76 72 96 103 117 327 309 292 260 264 302 292 269 267 295 296 269 263 260 267 272 255 258 266 258 260 260 259 260 278 247 232 240 252 255 265 279 296 304 299